Tracking 30743 objects as of 22-Jun-2025
HD Live streaming from Space Station
objects crossing your sky now

ONEWEB-0637

Track ONEWEB-0637 now!
10-day predictions
ONEWEB-0637 is classified as:


NORAD ID: 56078
Int'l Code: 2023-043AJ
Perigee: 1,207.7 km
Apogee: 1,210.1 km
Inclination: 87.9 °
Period: 109.5 minutes
Semi major axis: 7579 km
RCS: Unknown
Launch date: March 26, 2023
Source: United Kingdom (UK)
Launch site: SRIHARIKOTA (SRI)
Your satellite tracking list
Your tracking list is empty




NASA's NSSDC Master Catalog

Two Line Element Set (TLE):
1 56078U 23043AJ  25172.84632632 -.00000205  00000-0 -57744-3 0  9998
2 56078  87.9058 331.0610 0001572  89.0585 271.0725 13.15550332109056
Source of the keplerian elements: AFSPC